KLM1433 EHAM-LFLL

Flight info

Callsign KLM1433
Flight time 1h 12m
Altitude 29000
Route LOPIK N852 SUTAL DCT GTQ DCT POGOL DCT LASAT DCT MOROK Z24 BOLGI T14 MILPA
Aircraft B737/M-SDE2E3FGHIRWXY/LB1

Departure

Time 2026-05-05 19:37
Airport Amsterdam Airport Schiphol (EHAM)

Arrival

Time 2026-05-05 20:49
Airport Lyon Saint-Exupéry Airport (LFLL)
Time Latitude Longitude Altitude Speed Heading
2026-05-05 19:12 52.30742 4.76892 -3 ft 0 kts 36°
2026-05-05 19:23 52.30740 4.76889 -3 ft 2 kts 35°
2026-05-05 19:23 52.30728 4.76876 -3 ft 2 kts 35°
2026-05-05 19:23 52.30716 4.76863 -3 ft 2 kts 40°
2026-05-05 19:23 52.30708 4.76845 -3 ft 2 kts 86°
2026-05-05 19:24 52.30710 4.76823 -3 ft 2 kts 137°
2026-05-05 19:24 52.30721 4.76809 -3 ft 2 kts 147°
2026-05-05 19:24 52.30722 4.76808 -3 ft 0 kts 147°
2026-05-05 19:26 52.30720 4.76810 -3 ft 1 kts 147°
2026-05-05 19:26 52.30702 4.76830 -3 ft 5 kts 147°
2026-05-05 19:26 52.30662 4.76895 -3 ft 10 kts 108°
2026-05-05 19:26 52.30624 4.77012 -3 ft 12 kts 142°
2026-05-05 19:27 52.30558 4.77079 -4 ft 11 kts 148°
2026-05-05 19:27 52.30513 4.77083 -4 ft 7 kts 223°
2026-05-05 19:27 52.30474 4.76985 -4 ft 12 kts 238°
2026-05-05 19:27 52.30421 4.76850 -4 ft 15 kts 237°
2026-05-05 19:28 52.30365 4.76704 -4 ft 15 kts 238°
2026-05-05 19:28 52.30306 4.76549 -3 ft 17 kts 238°
2026-05-05 19:28 52.30235 4.76362 -3 ft 21 kts 238°
2026-05-05 19:28 52.30151 4.76143 -3 ft 23 kts 237°
2026-05-05 19:29 52.30067 4.75925 -4 ft 22 kts 238°
2026-05-05 19:29 52.29986 4.75715 -4 ft 22 kts 238°
2026-05-05 19:29 52.29907 4.75507 -3 ft 21 kts 238°
2026-05-05 19:29 52.29840 4.75321 -3 ft 16 kts 248°
2026-05-05 19:30 52.29863 4.75154 -3 ft 16 kts 310°
2026-05-05 19:30 52.29934 4.75023 -3 ft 16 kts 311°
2026-05-05 19:30 52.30012 4.74877 -3 ft 20 kts 311°
2026-05-05 19:30 52.30113 4.74691 -4 ft 22 kts 311°
2026-05-05 19:31 52.30212 4.74509 -3 ft 21 kts 311°
2026-05-05 19:31 52.30296 4.74350 -3 ft 14 kts 310°
2026-05-05 19:31 52.30349 4.74226 -3 ft 13 kts 279°
2026-05-05 19:31 52.30333 4.74094 -3 ft 8 kts 246°
2026-05-05 19:32 52.30325 4.74070 -3 ft 0 kts 240°
2026-05-05 19:32 52.30324 4.74068 -3 ft 1 kts 240°
2026-05-05 19:32 52.30314 4.74044 -3 ft 4 kts 232°
2026-05-05 19:32 52.30286 4.74000 -3 ft 7 kts 220°
2026-05-05 19:33 52.30252 4.73954 -4 ft 4 kts 219°
2026-05-05 19:33 52.30227 4.73922 -4 ft 5 kts 219°
2026-05-05 19:33 52.30193 4.73867 -5 ft 9 kts 231°
2026-05-05 19:33 52.30190 4.73770 -4 ft 9 kts 286°
2026-05-05 19:34 52.30242 4.73738 -7 ft 7 kts
2026-05-05 19:34 52.30269 4.73741 -8 ft 5 kts
2026-05-05 19:34 52.30304 4.73744 -9 ft 5 kts
2026-05-05 19:35 52.30370 4.73751 -8 ft 4 kts
2026-05-05 19:35 52.30396 4.73753 -7 ft 3 kts
2026-05-05 19:35 52.30408 4.73754 -7 ft 2 kts
2026-05-05 19:35 52.30419 4.73755 -6 ft 1 kts
2026-05-05 19:36 52.30426 4.73756 -6 ft 1 kts
2026-05-05 19:36 52.30435 4.73757 -6 ft 5 kts
2026-05-05 19:36 52.30666 4.73778 -5 ft 69 kts
2026-05-05 19:36 52.31368 4.73845 -4 ft 131 kts
2026-05-05 19:37 52.32409 4.73962 223 ft 161 kts
2026-05-05 19:37 52.33541 4.74084 949 ft 163 kts
2026-05-05 19:37 52.34650 4.74539 1509 ft 176 kts 26°
2026-05-05 19:37 52.35840 4.75448 1863 ft 200 kts 26°
2026-05-05 19:38 52.36971 4.76894 2437 ft 216 kts 54°
2026-05-05 19:38 52.37419 4.79223 3363 ft 221 kts 87°
2026-05-05 19:38 52.37041 4.81649 4397 ft 224 kts 113°
2026-05-05 19:38 52.36055 4.83676 5204 ft 236 kts 135°
2026-05-05 19:39 52.34560 4.85056 5572 ft 269 kts 163°
2026-05-05 19:39 52.32586 4.85227 6132 ft 287 kts 183°
2026-05-05 19:39 52.30638 4.84980 7202 ft 283 kts 183°
2026-05-05 19:39 52.28649 4.84863 8095 ft 289 kts 181°
2026-05-05 19:40 52.26613 4.84886 8999 ft 295 kts 171°
2026-05-05 19:40 52.24718 4.86027 10105 ft 291 kts 147°
2026-05-05 19:40 52.23052 4.87992 10774 ft 305 kts 141°
2026-05-05 19:40 52.21322 4.90284 10993 ft 335 kts 140°
2026-05-05 19:41 52.19462 4.92790 11368 ft 355 kts 140°
2026-05-05 19:41 52.17528 4.95365 12134 ft 362 kts 141°
2026-05-05 19:41 52.15571 4.97934 13151 ft 362 kts 140°
2026-05-05 19:41 52.13578 5.00520 13987 ft 368 kts 141°
2026-05-05 19:42 52.11567 5.03117 14815 ft 372 kts 141°
2026-05-05 19:42 52.09441 5.05545 15679 ft 377 kts 153°
2026-05-05 19:42 52.06946 5.06889 16590 ft 379 kts 164°
2026-05-05 19:42 52.04377 5.07974 17458 ft 383 kts 165°
2026-05-05 19:43 52.01781 5.09069 18254 ft 388 kts 164°
2026-05-05 19:43 51.99159 5.10203 19002 ft 391 kts 164°
2026-05-05 19:43 51.96540 5.11361 19816 ft 391 kts 165°
2026-05-05 19:43 51.93902 5.12536 20558 ft 395 kts 165°
2026-05-05 19:44 51.91220 5.13732 21262 ft 398 kts 165°
2026-05-05 19:44 51.88561 5.14915 22065 ft 399 kts 166°
2026-05-05 19:44 51.85861 5.16113 22565 ft 407 kts 166°
2026-05-05 19:44 51.83102 5.17336 23190 ft 412 kts 166°
2026-05-05 19:45 51.80332 5.18563 23822 ft 414 kts 166°
2026-05-05 19:45 51.77589 5.19778 24451 ft 415 kts 166°
2026-05-05 19:45 51.74804 5.21009 24993 ft 417 kts 166°
2026-05-05 19:45 51.71999 5.22247 25569 ft 419 kts 166°
2026-05-05 19:46 51.69166 5.23496 26092 ft 421 kts 166°
2026-05-05 19:46 51.66341 5.24740 26589 ft 425 kts 165°
2026-05-05 19:46 51.63477 5.26000 27052 ft 428 kts 165°
2026-05-05 19:46 51.60602 5.27262 27658 ft 427 kts 165°
2026-05-05 19:47 51.57748 5.28515 28429 ft 423 kts 165°
2026-05-05 19:47 51.54909 5.29759 28837 ft 423 kts 165°
2026-05-05 19:47 51.52103 5.30986 28862 ft 414 kts 165°
2026-05-05 19:48 51.46527 5.33421 28904 ft 418 kts 165°
2026-05-05 19:48 51.40880 5.35882 28894 ft 423 kts 164°
2026-05-05 19:49 51.35182 5.38362 28876 ft 421 kts 164°
2026-05-05 19:49 51.29566 5.40810 28875 ft 418 kts 164°
2026-05-05 19:50 51.23907 5.43096 28857 ft 421 kts 167°
2026-05-05 19:50 51.18170 5.44967 28859 ft 421 kts 167°
2026-05-05 19:51 51.12497 5.47287 28859 ft 421 kts 163°
2026-05-05 19:51 51.06907 5.49819 28853 ft 420 kts 163°
2026-05-05 19:52 51.01282 5.52327 28859 ft 420 kts 163°
2026-05-05 19:52 50.95655 5.54787 28856 ft 419 kts 164°
2026-05-05 19:53 50.90030 5.57226 28862 ft 419 kts 164°
2026-05-05 19:53 50.84405 5.59660 28856 ft 419 kts 164°
2026-05-05 19:54 50.78786 5.62086 28864 ft 419 kts 164°
2026-05-05 19:54 50.73157 5.64512 28853 ft 419 kts 163°
2026-05-05 19:55 50.67526 5.66936 28860 ft 420 kts 163°
2026-05-05 19:55 50.61901 5.69491 28851 ft 421 kts 162°
2026-05-05 19:56 50.56311 5.72227 28850 ft 421 kts 159°
2026-05-05 19:56 50.50826 5.75461 28849 ft 421 kts 158°
2026-05-05 19:57 50.45346 5.78743 28836 ft 421 kts 158°
2026-05-05 19:57 50.39859 5.81977 28842 ft 421 kts 158°
2026-05-05 19:58 50.34374 5.85178 28834 ft 421 kts 158°
2026-05-05 19:58 50.28881 5.88370 28841 ft 421 kts 158°
2026-05-05 19:59 50.24306 5.91024 28821 ft 422 kts 158°
2026-05-05 19:59 50.18796 5.94214 28823 ft 423 kts 158°
2026-05-05 20:00 50.13262 5.97410 28816 ft 423 kts 158°
2026-05-05 20:00 50.07749 6.00585 28815 ft 422 kts 158°
2026-05-05 20:01 50.02247 6.03754 28820 ft 421 kts 158°
2026-05-05 20:01 49.96742 6.06917 28811 ft 422 kts 158°
2026-05-05 20:02 49.91230 6.10071 28812 ft 423 kts 158°
2026-05-05 20:02 49.85708 6.13239 28801 ft 423 kts 157°
2026-05-05 20:03 49.80302 6.16836 28810 ft 423 kts 154°
2026-05-05 20:03 49.74970 6.20545 28804 ft 423 kts 155°
2026-05-05 20:04 49.69599 6.24213 28803 ft 423 kts 155°
2026-05-05 20:04 49.64214 6.27852 28802 ft 422 kts 155°
2026-05-05 20:05 49.58806 6.31401 28800 ft 422 kts 156°
2026-05-05 20:05 49.53395 6.34879 28806 ft 420 kts 156°
2026-05-05 20:06 49.47859 6.37648 28810 ft 422 kts 171°
2026-05-05 20:06 49.44898 6.38095 28921 ft 433 kts 174°
2026-05-05 20:06 49.41868 6.38481 29122 ft 441 kts 174°
2026-05-05 20:06 49.38794 6.38870 29438 ft 445 kts 174°
2026-05-05 20:07 49.35702 6.39269 29919 ft 445 kts 174°
2026-05-05 20:07 49.32626 6.39676 30496 ft 441 kts 173°
2026-05-05 20:07 49.29581 6.40088 31087 ft 438 kts 173°
2026-05-05 20:07 49.26548 6.40505 31520 ft 438 kts 174°
2026-05-05 20:08 49.23507 6.40927 31876 ft 439 kts 174°
2026-05-05 20:08 49.20461 6.41351 32282 ft 439 kts 174°
2026-05-05 20:08 49.17421 6.41775 32730 ft 438 kts 174°
2026-05-05 20:09 49.11310 6.42624 32838 ft 442 kts 174°
2026-05-05 20:09 49.05206 6.43469 32824 ft 437 kts 174°
2026-05-05 20:10 48.99160 6.44303 32896 ft 440 kts 174°
2026-05-05 20:10 48.96106 6.44723 33217 ft 441 kts 175°
2026-05-05 20:10 48.93059 6.45143 33677 ft 438 kts 175°
2026-05-05 20:10 48.90029 6.45559 34112 ft 436 kts 175°
2026-05-05 20:11 48.87009 6.45974 34410 ft 436 kts 175°
2026-05-05 20:11 48.83977 6.46389 34632 ft 438 kts 175°
2026-05-05 20:11 48.80936 6.46805 34915 ft 439 kts 175°
2026-05-05 20:11 48.77898 6.47220 35255 ft 438 kts 175°
2026-05-05 20:12 48.74865 6.47635 35540 ft 438 kts 175°
2026-05-05 20:12 48.71828 6.48049 35801 ft 439 kts 176°
2026-05-05 20:12 48.68786 6.48463 36063 ft 439 kts 176°
2026-05-05 20:12 48.65744 6.48877 36349 ft 439 kts 176°
2026-05-05 20:13 48.62711 6.49289 36626 ft 439 kts 176°
2026-05-05 20:13 48.59667 6.49702 36873 ft 439 kts 176°
2026-05-05 20:13 48.56661 6.50110 37132 ft 439 kts 176°
2026-05-05 20:13 48.53615 6.50522 37401 ft 439 kts 176°
2026-05-05 20:14 48.50579 6.50933 37674 ft 439 kts 176°
2026-05-05 20:14 48.47535 6.51344 37919 ft 439 kts 176°
2026-05-05 20:14 48.44489 6.51755 38171 ft 440 kts 176°
2026-05-05 20:14 48.41436 6.52166 38427 ft 439 kts 176°
2026-05-05 20:15 48.38393 6.52576 38641 ft 439 kts 177°
2026-05-05 20:15 48.35352 6.52985 38814 ft 439 kts 177°
2026-05-05 20:15 48.32296 6.53395 38839 ft 442 kts 177°
2026-05-05 20:16 48.26170 6.54216 38853 ft 440 kts 177°
2026-05-05 20:16 48.20094 6.55030 38866 ft 437 kts 177°
2026-05-05 20:17 48.14051 6.55836 38859 ft 435 kts 177°
2026-05-05 20:17 48.08038 6.56636 38862 ft 433 kts 177°
2026-05-05 20:18 48.02047 6.57431 38863 ft 431 kts 177°
2026-05-05 20:18 47.96047 6.58225 38339 ft 438 kts 177°
2026-05-05 20:18 47.93004 6.58626 37709 ft 436 kts 177°
2026-05-05 20:19 47.89992 6.59025 37038 ft 435 kts 177°
2026-05-05 20:19 47.86982 6.59422 36351 ft 434 kts 177°
2026-05-05 20:19 47.83976 6.59819 35658 ft 433 kts 176°
2026-05-05 20:19 47.80963 6.60215 34873 ft 435 kts 177°
2026-05-05 20:20 47.77942 6.60612 34069 ft 437 kts 177°
2026-05-05 20:20 47.74903 6.61010 33095 ft 439 kts 176°
2026-05-05 20:20 47.71862 6.61409 32164 ft 440 kts 176°
2026-05-05 20:20 47.68820 6.61808 31450 ft 435 kts 176°
2026-05-05 20:21 47.65824 6.62201 30793 ft 430 kts 176°
2026-05-05 20:21 47.62865 6.62589 30173 ft 424 kts 176°
2026-05-05 20:21 47.59996 6.63022 30236 ft 409 kts 172°
2026-05-05 20:21 47.57309 6.64466 30327 ft 415 kts 156°
2026-05-05 20:22 47.54777 6.66547 30182 ft 415 kts 154°
2026-05-05 20:22 47.52290 6.68688 29448 ft 414 kts 153°
2026-05-05 20:22 47.49754 6.70726 28173 ft 416 kts 161°
2026-05-05 20:22 47.46979 6.71692 26937 ft 417 kts 178°
2026-05-05 20:23 47.44098 6.71534 26033 ft 412 kts 191°
2026-05-05 20:23 47.41380 6.70421 25667 ft 397 kts 200°
2026-05-05 20:23 47.38859 6.68999 25537 ft 379 kts 202°
2026-05-05 20:23 47.36449 6.67558 25138 ft 370 kts 202°
2026-05-05 20:24 47.34087 6.66159 24949 ft 360 kts 199°
2026-05-05 20:24 47.31636 6.65360 24913 ft 366 kts 188°
2026-05-05 20:24 47.29055 6.65091 24901 ft 377 kts 184°
2026-05-05 20:24 47.26421 6.64995 24895 ft 379 kts 185°
2026-05-05 20:25 47.23835 6.64402 24893 ft 375 kts 196°
2026-05-05 20:25 47.21376 6.63155 24888 ft 374 kts 204°
2026-05-05 20:25 47.19068 6.61401 24902 ft 373 kts 209°
2026-05-05 20:25 47.16814 6.59506 24905 ft 374 kts 210°
2026-05-05 20:26 47.14566 6.57586 24901 ft 374 kts 210°
2026-05-05 20:26 47.12314 6.55662 24896 ft 374 kts 210°
2026-05-05 20:26 47.10063 6.53749 24893 ft 375 kts 210°
2026-05-05 20:26 47.07801 6.51837 24903 ft 375 kts 210°
2026-05-05 20:27 47.05536 6.49927 24901 ft 376 kts 209°
2026-05-05 20:27 47.03267 6.48019 24898 ft 376 kts 209°
2026-05-05 20:27 47.00998 6.46115 24895 ft 376 kts 209°
2026-05-05 20:27 46.98720 6.44210 24896 ft 376 kts 209°
2026-05-05 20:28 46.96449 6.42315 24895 ft 375 kts 209°
2026-05-05 20:28 46.94181 6.40426 24890 ft 375 kts 209°
2026-05-05 20:28 46.91917 6.38543 24902 ft 374 kts 209°
2026-05-05 20:28 46.89659 6.36667 24901 ft 374 kts 209°
2026-05-05 20:29 46.87421 6.34810 24896 ft 374 kts 209°
2026-05-05 20:29 46.85132 6.32913 24901 ft 374 kts 209°
2026-05-05 20:29 46.82900 6.31064 24904 ft 374 kts 209°
2026-05-05 20:29 46.80641 6.29195 24902 ft 374 kts 209°
2026-05-05 20:30 46.78380 6.27326 24904 ft 373 kts 209°
2026-05-05 20:30 46.76123 6.25462 24901 ft 372 kts 209°
2026-05-05 20:30 46.73869 6.23603 24894 ft 372 kts 209°
2026-05-05 20:30 46.71620 6.21749 24904 ft 371 kts 209°
2026-05-05 20:31 46.69377 6.19901 24885 ft 368 kts 209°
2026-05-05 20:31 46.67172 6.18087 24525 ft 362 kts 209°
2026-05-05 20:31 46.64981 6.16287 23911 ft 361 kts 209°
2026-05-05 20:31 46.62791 6.14488 23149 ft 362 kts 209°
2026-05-05 20:32 46.60596 6.12689 22398 ft 361 kts 209°
2026-05-05 20:32 46.58420 6.10905 21769 ft 357 kts 209°
2026-05-05 20:32 46.56264 6.09140 21146 ft 354 kts 209°
2026-05-05 20:32 46.54125 6.07390 20512 ft 352 kts 209°
2026-05-05 20:33 46.51999 6.05652 19890 ft 350 kts 209°
2026-05-05 20:33 46.49881 6.03923 19202 ft 350 kts 210°
2026-05-05 20:33 46.47740 6.02176 18477 ft 354 kts 210°
2026-05-05 20:33 46.45595 6.00427 17755 ft 354 kts 210°
2026-05-05 20:34 46.43457 5.98686 17132 ft 351 kts 210°
2026-05-05 20:34 46.41344 5.96966 16574 ft 346 kts 210°
2026-05-05 20:34 46.39262 5.95268 16064 ft 341 kts 211°
2026-05-05 20:34 46.37387 5.93217 15485 ft 338 kts 224°
2026-05-05 20:35 46.35834 5.90684 14895 ft 336 kts 232°
2026-05-05 20:35 46.34447 5.87979 14293 ft 334 kts 233°
2026-05-05 20:35 46.33105 5.85302 13731 ft 332 kts 233°
2026-05-05 20:35 46.31760 5.82609 13140 ft 329 kts 233°
2026-05-05 20:36 46.30424 5.79945 12555 ft 325 kts 233°
2026-05-05 20:36 46.29086 5.77289 12107 ft 318 kts 233°
2026-05-05 20:36 46.27795 5.74738 11716 ft 311 kts 233°
2026-05-05 20:36 46.26547 5.72276 11213 ft 308 kts 233°
2026-05-05 20:37 46.25275 5.69776 10595 ft 309 kts 233°
2026-05-05 20:37 46.24417 5.68094 10232 ft 307 kts 233°
2026-05-05 20:37 46.22775 5.64874 9982 ft 290 kts 232°
2026-05-05 20:37 46.21607 5.62586 9887 ft 276 kts 232°
2026-05-05 20:38 46.20497 5.60414 9754 ft 264 kts 232°
2026-05-05 20:38 46.19418 5.58306 9450 ft 259 kts 232°
2026-05-05 20:38 46.18343 5.56210 8988 ft 261 kts 232°
2026-05-05 20:38 46.17269 5.54117 8696 ft 257 kts 232°
2026-05-05 20:39 46.16205 5.52042 8450 ft 256 kts 233°
2026-05-05 20:39 46.15142 5.49972 8215 ft 257 kts 232°
2026-05-05 20:39 46.14072 5.47892 8000 ft 259 kts 233°
2026-05-05 20:39 46.12999 5.45805 7781 ft 259 kts 233°
2026-05-05 20:40 46.11926 5.43717 7549 ft 259 kts 233°
2026-05-05 20:40 46.10853 5.41636 7327 ft 258 kts 233°
2026-05-05 20:40 46.09780 5.39555 7100 ft 259 kts 233°
2026-05-05 20:40 46.08708 5.37476 6879 ft 258 kts 233°
2026-05-05 20:41 46.07636 5.35399 6661 ft 257 kts 233°
2026-05-05 20:41 46.06570 5.33334 6441 ft 256 kts 233°
2026-05-05 20:41 46.05508 5.31280 6216 ft 255 kts 233°
2026-05-05 20:41 46.04452 5.29238 5980 ft 253 kts 232°
2026-05-05 20:42 46.03405 5.27214 5743 ft 252 kts 232°
2026-05-05 20:42 46.02360 5.25196 5517 ft 251 kts 232°
2026-05-05 20:42 46.01319 5.23188 5290 ft 250 kts 232°
2026-05-05 20:42 46.00284 5.21192 5066 ft 248 kts 232°
2026-05-05 20:43 45.99253 5.19206 4849 ft 247 kts 232°
2026-05-05 20:43 45.98225 5.17225 4623 ft 247 kts 232°
2026-05-05 20:43 45.97199 5.15250 4385 ft 246 kts 232°
2026-05-05 20:43 45.96174 5.13280 4153 ft 246 kts 233°
2026-05-05 20:44 45.95142 5.11298 3937 ft 249 kts 233°
2026-05-05 20:44 45.94128 5.09354 3730 ft 243 kts 233°
2026-05-05 20:44 45.93009 5.07625 3580 ft 234 kts 211°
2026-05-05 20:44 45.91454 5.07091 3458 ft 226 kts 180°
2026-05-05 20:45 45.88451 5.07361 3224 ft 210 kts 176°
2026-05-05 20:45 45.87029 5.07534 3117 ft 200 kts 176°
2026-05-05 20:45 45.85692 5.07699 3042 ft 188 kts 176°
2026-05-05 20:46 45.84414 5.07856 2960 ft 180 kts 176°
2026-05-05 20:46 45.83588 5.07956 2833 ft 174 kts 176°
2026-05-05 20:46 45.82412 5.08099 2605 ft 166 kts 176°
2026-05-05 20:46 45.81280 5.08237 2392 ft 161 kts 176°
2026-05-05 20:47 45.80219 5.08367 2208 ft 146 kts 176°
2026-05-05 20:47 45.79263 5.08484 1987 ft 131 kts 176°
2026-05-05 20:47 45.78368 5.08592 1835 ft 130 kts 175°
2026-05-05 20:47 45.77453 5.08704 1654 ft 134 kts 175°
2026-05-05 20:48 45.76523 5.08822 1437 ft 135 kts 175°
2026-05-05 20:48 45.75594 5.08931 1191 ft 132 kts 175°
2026-05-05 20:48 45.74677 5.09051 1022 ft 132 kts 175°
2026-05-05 20:48 45.73767 5.09160 848 ft 130 kts 175°
2026-05-05 20:49 45.72902 5.09260 777 ft 114 kts 175°
2026-05-05 20:49 45.72263 5.09337 785 ft 70 kts 175°
2026-05-05 20:49 45.71946 5.09372 789 ft 31 kts 179°
2026-05-05 20:49 45.71791 5.09342 792 ft 17 kts 196°
2026-05-05 20:50 45.71688 5.09286 795 ft 14 kts 206°
2026-05-05 20:50 45.71636 5.09218 796 ft 10 kts 252°
2026-05-05 20:50 45.71631 5.09120 798 ft 10 kts 266°
2026-05-05 20:50 45.71626 5.09025 799 ft 10 kts 265°
2026-05-05 20:51 45.71620 5.08925 799 ft 10 kts 264°
2026-05-05 20:51 45.71613 5.08818 798 ft 11 kts 264°
2026-05-05 20:51 45.71606 5.08711 798 ft 10 kts 264°
2026-05-05 20:51 45.71600 5.08613 798 ft 10 kts 265°
2026-05-05 20:52 45.71580 5.08523 798 ft 10 kts 225°
2026-05-05 20:52 45.71517 5.08513 799 ft 9 kts 175°
2026-05-05 20:52 45.71453 5.08520 800 ft 9 kts 180°
2026-05-05 20:52 45.71414 5.08457 800 ft 10 kts 259°
2026-05-05 20:53 45.71408 5.08348 800 ft 12 kts 266°
2026-05-05 20:53 45.71420 5.08233 800 ft 12 kts 285°
2026-05-05 20:53 45.71441 5.08118 799 ft 12 kts 285°
2026-05-05 20:53 45.71457 5.08005 799 ft 11 kts 264°
2026-05-05 20:54 45.71444 5.07896 799 ft 11 kts 284°
2026-05-05 20:54 45.71477 5.07796 798 ft 11 kts 294°
2026-05-05 20:54 45.71503 5.07720 798 ft 5 kts 337°
2026-05-05 20:54 45.71539 5.07727 797 ft 5 kts 15°
2026-05-05 20:55 45.71560 5.07735 797 ft 0 kts 15°